SBIRS GEO-1 (USA 230)

Last updated on Tue Oct 08 2024 00:02:39 GMT+0000 (Coordinated Universal Time)

1 37481U 11019A 24281.19848233 .00000008 00000+0 00000+0 0 9996 2 37481 3.2152 50.0832 0001952 161.1224 302.3003 1.00272346 49201
UTC large
Height (km)
Speed (km/s)
/
Latitude / Longitude
Inclination (degrees)
Orbital Period (minutes)
Azimuth
Elevation
Range (km)
Doppler Factor

Next 0 passes for location: London (51.5072 / 0.1276)

Sorry there are no passes over London.